Hourly Weather Encarnación

Today, 25 February, Thursday

Time Temperature Precipitation Wind Pressure Humidity
00:00 +24°C° 0 mm 1 mps 751 mmHg 72%
01:00 +23°C° 0 mm 1 mps 751 mmHg 76%
02:00 +22°C° 0 mm 1 mps 751 mmHg 79%
03:00 +22°C° 0 mm 1 mps 751 mmHg 82%
04:00 +20°C° 0 mm 2 mps 751 mmHg 84%
05:00 +20°C° 0 mm 2 mps 751 mmHg 86%
06:00 +23°C° 0 mm 2 mps 751 mmHg 77%
07:00 +25°C° 0 mm 2 mps 752 mmHg 69%
08:00 +27°C° 0 mm 2 mps 752 mmHg 60%
09:00 +30°C° 0 mm 2 mps 752 mmHg 50%
10:00 +32°C° 0 mm 2 mps 752 mmHg 41%
11:00 +36°C° 0 mm 2 mps 751 mmHg 31%
12:00 +36°C° 0 mm 2 mps 751 mmHg 30%
13:00 +37°C° 0 mm 3 mps 750 mmHg 28%
14:00 +38°C° 0 mm 3 mps 750 mmHg 27%
15:00 +37°C° 0 mm 3 mps 749 mmHg 29%
16:00 +36°C° 0 mm 3 mps 749 mmHg 31%
17:00 +35°C° 0 mm 3 mps 748 mmHg 34%
18:00 +33°C° 0 mm 3 mps 749 mmHg 40%
19:00 +29°C° 0 mm 2 mps 749 mmHg 47%
20:00 +27°C° 0 mm 2 mps 750 mmHg 54%
21:00 +26°C° 0 mm 2 mps 750 mmHg 59%
22:00 +25°C° 0 mm 2 mps 750 mmHg 64%
23:00 +24°C° 0 mm 2 mps 750 mmHg 70%

Tomorrow, 26 February, Friday

Time Temperature Precipitation Wind Pressure Humidity
00:00 +23°C° 0 mm 2 mps 750 mmHg 71%
01:00 +23°C° 0 mm 2 mps 750 mmHg 72%
02:00 +21°C° 0 mm 2 mps 749 mmHg 73%
03:00 +21°C° 0 mm 2 mps 749 mmHg 76%
04:00 +20°C° 0 mm 2 mps 750 mmHg 79%
05:00 +20°C° 0 mm 2 mps 750 mmHg 82%
06:00 +23°C° 0 mm 2 mps 750 mmHg 77%
07:00 +25°C° 0 mm 2 mps 750 mmHg 71%
08:00 +27°C° 0 mm 2 mps 750 mmHg 65%
09:00 +30°C° 0 mm 2 mps 750 mmHg 56%
10:00 +34°C° 0 mm 2 mps 750 mmHg 46%
11:00 +36°C° 0 mm 1 mps 750 mmHg 37%
12:00 +39°C° 0 mm 1 mps 750 mmHg 33%
13:00 +40°C° 0 mm 1 mps 749 mmHg 28%
14:00 +38°C° 0 mm 0 mps 749 mmHg 24%
15:00 +40°C° 0 mm 1 mps 748 mmHg 27%
16:00 +39°C° 0 mm 1 mps 748 mmHg 30%
17:00 +36°C° 0 mm 1 mps 748 mmHg 33%
18:00 +35°C° 0 mm 2 mps 748 mmHg 40%
19:00 +33°C° 0 mm 3 mps 748 mmHg 46%
20:00 +29°C° 0 mm 3 mps 749 mmHg 52%
21:00 +29°C° 0 mm 3 mps 749 mmHg 58%
22:00 +28°C° 0 mm 3 mps 749 mmHg 63%
23:00 +27°C° 0 mm 2 mps 750 mmHg 69%

Day after tomorrow, 27 February, Saturday

Time Temperature Precipitation Wind Pressure Humidity
00:00 +26°C° 0 mm 2 mps 750 mmHg 72%
01:00 +25°C° 0 mm 2 mps 750 mmHg 75%
02:00 +25°C° 0 mm 2 mps 750 mmHg 78%
03:00 +24°C° 0 mm 2 mps 750 mmHg 80%
04:00 +24°C° 0 mm 2 mps 751 mmHg 81%
05:00 +24°C° 0 mm 2 mps 751 mmHg 82%
06:00 +26°C° 0 mm 2 mps 752 mmHg 75%
07:00 +27°C° 0 mm 3 mps 752 mmHg 67%
08:00 +29°C° 0 mm 3 mps 752 mmHg 60%
09:00 +31°C° 0 mm 3 mps 753 mmHg 53%
10:00 +35°C° 0 mm 2 mps 753 mmHg 45%
11:00 +37°C° 0 mm 2 mps 753 mmHg 38%
12:00 +38°C° 0 mm 2 mps 752 mmHg 35%
13:00 +39°C° 0 mm 2 mps 751 mmHg 32%
14:00 +39°C° 0 mm 2 mps 751 mmHg 28%
15:00 +38°C° 0 mm 2 mps 750 mmHg 32%
16:00 +37°C° 0 mm 2 mps 750 mmHg 36%
17:00 +35°C° 0 mm 2 mps 750 mmHg 40%
18:00 +34°C° 0 mm 3 mps 750 mmHg 46%
19:00 +31°C° 0 mm 3 mps 750 mmHg 53%
20:00 +30°C° 0 mm 4 mps 750 mmHg 59%
21:00 +29°C° 0 mm 3 mps 751 mmHg 63%
22:00 +28°C° 0 mm 3 mps 751 mmHg 68%
23:00 +27°C° 0 mm 2 mps 751 mmHg 72%

28 February, Sunday

Time Temperature Precipitation Wind Pressure Humidity
00:00 +26°C° 0 mm 2 mps 751 mmHg 72%
01:00 +25°C° 0 mm 2 mps 751 mmHg 72%
02:00 +25°C° 0 mm 2 mps 751 mmHg 72%
03:00 +25°C° 0 mm 2 mps 751 mmHg 71%
04:00 +25°C° 0 mm 2 mps 751 mmHg 71%
05:00 +25°C° 0 mm 2 mps 752 mmHg 70%
06:00 +26°C° 0 mm 3 mps 752 mmHg 64%
07:00 +27°C° 0 mm 3 mps 752 mmHg 58%
08:00 +29°C° 0 mm 3 mps 753 mmHg 52%
09:00 +31°C° 0 mm 3 mps 752 mmHg 46%
10:00 +35°C° 0 mm 2 mps 752 mmHg 40%
11:00 +36°C° 0 mm 1 mps 752 mmHg 34%
12:00 +37°C° 0 mm 1 mps 751 mmHg 31%
13:00 +39°C° 0 mm 1 mps 750 mmHg 29%
14:00 +40°C° 0 mm 1 mps 749 mmHg 26%
15:00 +39°C° 0 mm 2 mps 749 mmHg 29%
16:00 +37°C° 0 mm 2 mps 748 mmHg 32%
17:00 +35°C° 0 mm 3 mps 748 mmHg 35%
18:00 +34°C° 0 mm 3 mps 748 mmHg 42%
19:00 +31°C° 0 mm 3 mps 748 mmHg 49%
20:00 +29°C° 0 mm 4 mps 748 mmHg 57%
21:00 +28°C° 0 mm 3 mps 749 mmHg 61%
22:00 +27°C° 0 mm 3 mps 749 mmHg 65%
23:00 +26°C° 0 mm 2 mps 749 mmHg 69%

1 March, Monday

Time Temperature Precipitation Wind Pressure Humidity
00:00 +25°C° 0 mm 2 mps 749 mmHg 71%
01:00 +25°C° 0 mm 2 mps 749 mmHg 74%
02:00 +24°C° 0 mm 2 mps 748 mmHg 76%
03:00 +24°C° 0 mm 2 mps 748 mmHg 78%
04:00 +23°C° 0 mm 2 mps 749 mmHg 80%
05:00 +23°C° 0 mm 2 mps 749 mmHg 82%
06:00 +25°C° 0 mm 2 mps 749 mmHg 75%
07:00 +26°C° 0 mm 2 mps 749 mmHg 67%
08:00 +28°C° 0 mm 3 mps 750 mmHg 60%
09:00 +31°C° 0 mm 2 mps 749 mmHg 52%
10:00 +35°C° 0 mm 2 mps 749 mmHg 45%
11:00 +37°C° 0 mm 1 mps 749 mmHg 38%
12:00 +37°C° 0 mm 1 mps 748 mmHg 36%
13:00 +39°C° 0 mm 1 mps 748 mmHg 34%
14:00 +39°C° 0 mm 1 mps 747 mmHg 31%
15:00 +37°C° 0 mm 1 mps 747 mmHg 34%
16:00 +37°C° 0 mm 2 mps 746 mmHg 37%
17:00 +35°C° 0 mm 2 mps 746 mmHg 40%
18:00 +34°C° 0 mm 2 mps 746 mmHg 45%
19:00 +31°C° 0 mm 2 mps 747 mmHg 50%
20:00 +30°C° 0 mm 2 mps 747 mmHg 55%
21:00 +29°C° 0 mm 2 mps 748 mmHg 61%
22:00 +28°C° 0 mm 2 mps 748 mmHg 66%
23:00 +27°C° 0 mm 2 mps 748 mmHg 72%

2 March, Tuesday

Time Temperature Precipitation Wind Pressure Humidity
00:00 +26°C° 0 mm 2 mps 748 mmHg 75%
01:00 +25°C° 0 mm 2 mps 748 mmHg 78%
02:00 +25°C° 0 mm 1 mps 748 mmHg 81%
03:00 +24°C° 0 mm 1 mps 748 mmHg 83%
04:00 +24°C° 0 mm 1 mps 748 mmHg 85%
05:00 +23°C° 0 mm 1 mps 748 mmHg 87%
06:00 +25°C° 0 mm 1 mps 749 mmHg 80%
07:00 +28°C° 0 mm 1 mps 749 mmHg 73%
08:00 +30°C° 0 mm 2 mps 750 mmHg 66%
09:00 +32°C° 0.2 mm 2 mps 750 mmHg 61%
10:00 +34°C° 0.2 mm 1 mps 750 mmHg 56%
11:00 +36°C° 0.2 mm 1 mps 749 mmHg 51%
12:00 +37°C° 0.1 mm 1 mps 749 mmHg 46%
13:00 +39°C° 0.1 mm 1 mps 748 mmHg 41%
14:00 +37°C° 0.1 mm 0 mps 748 mmHg 36%
15:00 +39°C° 0 mm 1 mps 747 mmHg 40%
16:00 +37°C° 0 mm 2 mps 747 mmHg 44%
17:00 +35°C° 0 mm 2 mps 747 mmHg 47%
18:00 +32°C° 0 mm 2 mps 747 mmHg 53%
19:00 +31°C° 0 mm 2 mps 748 mmHg 59%
20:00 +29°C° 0 mm 1 mps 748 mmHg 64%
21:00 +28°C° 0 mm 2 mps 749 mmHg 66%
22:00 +28°C° 0 mm 2 mps 749 mmHg 67%
23:00 +28°C° 0 mm 2 mps 749 mmHg 68%
Show more

We Need Your Consent

Meteoprog and our Service Providers may store and access personal data such as cookies, device identifiers or other similar technologies on your device and process such data to personalise content and ads, as well as provide social media features and to analyse the traffic.

  • Store and/or access information on your device

    Cookies, device identifiers or other information can be stored or accessed on your device for the purposes indicated above.

  • Personalised ads and content, ad and content measurement, audience insights, and products development

    Ads and content can be personalised based on a profile. More data can be added to better personalise ads and content. Ad and content performance can be measured. Insights about the audience who saw the ads and content can be derived. Such data can be used to develop or improve user’s experience, systems and software.

By clicking ‘I Agree’ you will allow the use of indicated cookies, device identifiers, web beacons or other similar technologies. Your settings can be changed in the browser on your device.

For certain purposes, legitimate interests may be relied on, rather than consent. You can read more about this in our Privacy and Cookie Policy.